Weather in Wexford

Ireland     52°20′14″N   6°27′33″W
temp.,
°C
wind,
m/s
gust,
m/s
humid.,
%
clouds,
%
prec.,
mm/h
press.,
hPa
HPBL,
m
6 may, thu
thu601:00+4n3483100 0.4 1009122
04:00+3n4586100 0.0 1008150
07:00+2n5882100 0.0 1008221
10:00+6nne56630 0.0 1009844
13:00+9ne245153 0.0 10101418
16:00+8se345450 0.0 10101259
19:00+9s336198 0.1 1011410
22:00+5nnw347616 0.1 1013110
7 may, fri
fri701:00+3nnw447914 0.1 101584
04:00+2nw44780 0.0 101680
07:00+2nw33760 0.0 101695
10:00+7nne11590 0.0 1017473
13:00+8sse3355100 0.0 1017939
16:00+9sse4560100 0.0 1015771
19:00+9sse5762100 0.0 1014893
22:00+8se81168100 0.0 1011954
8 may, sat
sat801:00+7se101589100 1.1 1006691
04:00+8se142297100 8.2 998727
07:00+11ssw101798100 16.8 993531
10:00+11sw81398100 0.1 993489
13:00+12sw81292100 0.3 994631
16:00+12ssw81190100 0.1 993655
19:00+11ssw71294100 0.2 992558
22:00+10ssw81395100 0.0 991481
9 may, sun
sun901:00+10ssw9149181 0.0 990625
04:00+11ssw10157999 0.1 988896
07:00+10s121788100 0.4 987875
10:00+11s13188839 0.5 9861118
13:00+11s13188994 1.3 9861134
16:00+11s13178974 0.8 9861018
19:00+11s11159164 1.3 987822
22:00+10ssw10149462 0.2 987667
10 may, mon
mon1001:00+9ssw9149355 0.4 987670
04:00+9ssw10149156 0.2 988709
07:00+9ssw12168718 0.4 9901004
10:00+10ssw1318825 0.4 9911422
13:00+10s14207814 0.8 9921620
16:00+9s161887100 0.8 9901189
19:00+10ssw111589100 1.2 991950
22:00+9ssw111489100 0.1 993772